Regional Weather Roundup
Issued by NWS

Home | Current Version | Previous Version | Text Only | Print | Product List | Glossary On
Versions: 1 2 3 4 5 6 7 8 9 10 11 12 13 14 15 16 17 18 19 20 21 22 23 24 25 26 27
000
ASUS42 KKEY 241110
RWRKEY

FLORIDA REGIONAL WEATHER ROUNDUP FOR THE FLORIDA KEYS
NATIONAL WEATHER SERVICE KEY WEST FLORIDA
700 AM EDT THU MAY 24 2018

...SOUTH FLORIDA AND THE KEYS...

CITY           SKY/WX    TMP DP  RH WIND       PRES   REMARKS
FORT MYERS     FAIR      73  72  96 E3        30.04S
SW REGIONAL AP FAIR      71  71 100 NE5       30.05S
NAPLES         FAIR      73  73 100 NE5       30.04S
MIAMI          CLOUDY    77  75  93 E3        30.05R
WEST KENDALL   MOCLDY    77  72  84 E3        30.04S
HOMESTEAD      FAIR      76  72  87 E3        30.04R
MARATHON       FAIR      79  72  79 E5        30.02S
KEY WEST INTL  FAIR      78  76  93 E7        30.03R

...INTERNATIONAL WEATHER...

CITY           SKY/WX    TMP DP  RH WIND       PRES   REMARKS
NASSAU BAHAMAS MOCLDY    77  72  83 SE7       30.07R
CANCUN MEXICO  LGT RAIN  77  75  94 E13       29.88S
COZUMEL MEXICO TSTM      75  75 100 SE13      29.86R

ADJACENT COASTAL WATERS...

STATION/POSITION TIME  SKY/WX   TEMP    WIND        PRES    WAVE
                                AIR SEA DIR/SP/G            HT/PER
                 (UTC)          (F)     (DEG/KT/KT) (MB)    (FT/S)
PULASKI SHOAL LI 1100            78      80/ 12/ 12 1016.5R
SAND KEY         1050            79                 1016.6R
SOMBRERO KEY     1050            80      60/ 10/ 12 1016.0R
LONG KEY         1100            79 79  110/  9/  9 1016.8R
MOLASSES REEF    1100            79 79  120/ 10/ 11 1017.5R
FOWEY ROCKS      1100            79 79  100/ 12/ 13 1018.0R
Buoy 42097       1030               81                N/A     2/ 4

$$




USA.gov is the U.S. government's official web portal to all federal, state and local government web resources and services.